Morris, IL

2:43 PM CDT on July 22, 2017 (GMT -0500)
Morris

Weather History for KC09 - November, 2012

Change the Weather History Date:

Wednesday, November 14, 2012

  Actual Average (KARR) Record (KARR)
Temperature  
Mean Temperature 37 °F -  
Max Temperature 46 °F 46 °F 65 °F (2001)
Min Temperature 28 °F 29 °F 15 °F (2014)
Degree Days  
Heating Degree Days 28    
Moisture  
Dew Point 27 °F    
Average Humidity 72    
Maximum Humidity 87    
Minimum Humidity 47    
Precipitation  
Precipitation 0.00 in - - ()
Sea Level Pressure  
Sea Level Pressure 30.45 in    
Wind  
Wind Speed 6 mph (SSE)    
Max Wind Speed 14 mph    
Max Gust Speed 16 mph    
Visibility 10 miles    
Events      
Averages and records for this station are not official NWS values.
T = Trace of Precipitation, MM = Missing Value Source: NWS Daily Summary

Daily Weather History Graph

Daily Weather History Graph

Search for Another Location

Airport or City:

Trip Planner

Search our weather history database for the weather conditions in past years. The results will help you decide how hot, cold, wet, or windy it might be!

Date:

Astronomy

Nov. 14, 2012 Rise Set
Actual Time 6:41 AM CST 4:34 PM CST
Civil Twilight 6:11 AM CST 5:04 PM CST
Nautical Twilight 5:38 AM CST 5:37 PM CST
Astronomical Twilight 5:05 AM CST 6:10 PM CST
Moon 7:31 AM CST (11/14) 5:22 PM CST (11/14)
Length of Visible Light 10h 52m
Length of Day
9h 52m
New Moon, 1% of the Moon is Illuminated
Nov 14
New Moon
Nov 20
First Quarter
Nov 28
Full
Dec 6
Last Quarter
Dec 13
New

Hourly Weather History & Observations

Time (CST) Temp. Windchill Dew Point Humidity Pressure Visibility Wind Dir Wind Speed Gust Speed Precip Events Conditions
12:15 AM 31.1 °F 27.7 °F 25.3 °F 79% 30.49 in 10.0 mi SSE 3.5 mph - N/A   Clear
12:35 AM 30.9 °F 27.5 °F 25.2 °F 79% 30.49 in 10.0 mi SSE 3.5 mph - N/A   Clear
12:55 AM 30.2 °F 26.7 °F 25.2 °F 82% 30.49 in 10.0 mi South 3.5 mph - N/A   Clear
1:15 AM 30.0 °F 26.5 °F 25.3 °F 83% 30.49 in 10.0 mi SE 3.5 mph - N/A   Clear
1:35 AM 29.8 °F 24.9 °F 25.5 °F 84% 30.49 in 10.0 mi SE 4.6 mph - N/A   Clear
1:55 AM 30.0 °F 25.2 °F 25.7 °F 84% 30.49 in 10.0 mi SE 4.6 mph - N/A   Clear
2:15 AM 30.2 °F 25.4 °F 26.1 °F 85% 30.49 in 10.0 mi SE 4.6 mph - N/A   Clear
2:35 AM 30.2 °F 25.4 °F 26.6 °F 86% 30.49 in 10.0 mi SE 4.6 mph - N/A   Clear
2:55 AM 30.6 °F 27.1 °F 26.6 °F 85% 30.49 in 10.0 mi SSE 3.5 mph - N/A   Scattered Clouds
3:15 AM 30.2 °F 26.7 °F 26.6 °F 86% 30.49 in 10.0 mi SSE 3.5 mph - N/A   Scattered Clouds
3:35 AM 30.2 °F 26.7 °F 26.1 °F 85% 30.49 in 10.0 mi South 3.5 mph - N/A   Clear
3:55 AM 30.6 °F 25.8 °F 26.2 °F 84% 30.49 in 10.0 mi SSE 4.6 mph - N/A   Clear
4:15 AM 29.7 °F 24.7 °F 25.7 °F 85% 30.49 in 10.0 mi SSE 4.6 mph - N/A   Clear
4:35 AM 29.1 °F 22.1 °F 25.5 °F 86% 30.49 in 10.0 mi SE 6.9 mph - N/A   Clear
4:55 AM 29.7 °F 24.7 °F 25.7 °F 85% 30.49 in 10.0 mi SE 4.6 mph - N/A   Clear
5:15 AM 28.4 °F 23.3 °F 25.0 °F 87% 30.50 in 10.0 mi SSE 4.6 mph - N/A   Clear
5:35 AM 29.3 °F 24.3 °F 25.2 °F 85% 30.50 in 10.0 mi SSE 4.6 mph - N/A   Clear
5:55 AM 29.3 °F - 25.0 °F 84% 30.50 in 10.0 mi Calm Calm - N/A   Clear
6:15 AM 29.3 °F 25.6 °F 24.8 °F 83% 30.49 in 10.0 mi SE 3.5 mph - N/A   Clear
6:35 AM 28.4 °F 22.2 °F 24.4 °F 85% 30.49 in 10.0 mi SE 5.8 mph - N/A   Clear
6:55 AM 28.6 °F 22.4 °F 24.8 °F 86% 30.49 in 10.0 mi SE 5.8 mph - N/A   Clear
7:15 AM 29.3 °F 23.2 °F 25.2 °F 85% 30.50 in 10.0 mi SSE 5.8 mph - N/A   Clear
7:35 AM 29.3 °F 25.6 °F 25.5 °F 86% 30.51 in 10.0 mi SSE 3.5 mph - N/A   Clear
7:55 AM 31.1 °F 27.7 °F 26.8 °F 84% 30.52 in 10.0 mi SW 3.5 mph - N/A   Clear
8:15 AM 32.7 °F 26.4 °F 27.3 °F 81% 30.51 in 10.0 mi SSE 6.9 mph - N/A   Clear
8:35 AM 33.8 °F 25.8 °F 27.9 °F 79% 30.51 in 10.0 mi SSE 10.4 mph - N/A   Clear
8:55 AM 35.6 °F 27.1 °F 28.9 °F 77% 30.50 in 10.0 mi SSE 12.7 mph - N/A   Clear
9:15 AM 37.6 °F 30.0 °F 28.4 °F 69% 30.50 in 10.0 mi SSE 11.5 mph - N/A   Clear
9:35 AM 38.3 °F 30.5 °F 27.1 °F 64% 30.50 in 10.0 mi South 12.7 mph - N/A   Clear
9:55 AM 40.1 °F 33.6 °F 27.9 °F 62% 30.50 in 10.0 mi South 10.4 mph - N/A   Clear
10:15 AM 40.8 °F 34.5 °F 27.5 °F 59% 30.51 in 10.0 mi South 10.4 mph - N/A   Clear
10:35 AM 41.4 °F 35.2 °F 28.0 °F 59% 30.50 in 10.0 mi SSE 10.4 mph - N/A   Clear
10:55 AM 42.1 °F 35.7 °F 27.5 °F 56% 30.49 in 10.0 mi South 11.5 mph - N/A   Clear
11:15 AM 43.0 °F 36.8 °F 27.3 °F 54% 30.48 in 10.0 mi South 11.5 mph - N/A   Clear
11:35 AM 43.2 °F 37.0 °F 27.7 °F 54% 30.47 in 10.0 mi South 11.5 mph - N/A   Clear
11:55 AM 43.7 °F 38.1 °F 27.3 °F 53% 30.47 in 10.0 mi SSE 10.4 mph - N/A   Clear
12:15 PM 44.1 °F 38.1 °F 27.1 °F 51% 30.45 in 10.0 mi South 11.5 mph - N/A   Clear
12:35 PM 44.8 °F 38.3 °F 27.1 °F 50% 30.44 in 10.0 mi SSE 13.8 mph - N/A   Clear
12:55 PM 45.0 °F 39.7 °F 27.0 °F 49% 30.44 in 10.0 mi SSE 10.4 mph 16.1 mph N/A   Clear
1:15 PM 45.7 °F 40.2 °F 27.0 °F 48% 30.43 in 10.0 mi SSE 11.5 mph - N/A   Clear
1:35 PM 45.9 °F 40.8 °F 26.8 °F 47% 30.43 in 10.0 mi South 10.4 mph - N/A   Clear
1:55 PM 46.0 °F 40.6 °F 26.6 °F 47% 30.42 in 10.0 mi South 11.5 mph 16.1 mph N/A   Clear
2:15 PM 45.7 °F 40.6 °F 26.8 °F 48% 30.42 in 10.0 mi South 10.4 mph - N/A   Clear
2:35 PM 45.9 °F 41.2 °F 26.4 °F 47% 30.42 in 10.0 mi South 9.2 mph - N/A   Clear
2:55 PM 45.7 °F 41.5 °F 26.6 °F 47% 30.42 in 10.0 mi SSE 8.1 mph - N/A   Clear
3:15 PM 43.7 °F 38.6 °F 27.7 °F 53% 30.41 in 10.0 mi SSE 9.2 mph - N/A   Clear
3:35 PM 44.4 °F 40.0 °F 28.2 °F 53% 30.40 in 10.0 mi SSE 8.1 mph - N/A   Clear
3:55 PM 43.3 °F 38.6 °F 27.5 °F 54% 30.40 in 10.0 mi SSE 8.1 mph - N/A   Clear
4:15 PM 41.5 °F 37.8 °F 28.2 °F 59% 30.41 in 10.0 mi SSE 5.8 mph - N/A   Clear
4:35 PM 39.0 °F 34.8 °F 27.5 °F 63% 30.41 in 10.0 mi SSE 5.8 mph - N/A   Clear
4:55 PM 38.1 °F 33.7 °F 27.1 °F 65% 30.40 in 10.0 mi SSE 5.8 mph - N/A   Clear
5:15 PM 38.8 °F 35.4 °F 27.5 °F 64% 30.39 in 10.0 mi SE 4.6 mph - N/A   Clear
5:35 PM 38.3 °F 34.8 °F 27.5 °F 65% 30.40 in 10.0 mi SE 4.6 mph - N/A   Clear
5:55 PM 37.2 °F 33.6 °F 27.3 °F 67% 30.40 in 10.0 mi SE 4.6 mph - N/A   Clear
6:15 PM 37.9 °F 34.4 °F 27.5 °F 66% 30.40 in 10.0 mi SE 4.6 mph - N/A   Clear
6:35 PM 37.0 °F 33.3 °F 27.9 °F 69% 30.40 in 10.0 mi SE 4.6 mph - N/A   Clear
6:55 PM 36.0 °F 32.1 °F 28.0 °F 73% 30.40 in 10.0 mi SE 4.6 mph - N/A   Clear
7:15 PM 35.1 °F 31.0 °F 27.9 °F 75% 30.39 in 10.0 mi SE 4.6 mph - N/A   Clear
7:35 PM 35.1 °F 31.0 °F 28.0 °F 76% 30.39 in 10.0 mi SE 4.6 mph - N/A   Clear
7:55 PM 35.1 °F 32.2 °F 28.2 °F 76% 30.40 in 10.0 mi SSE 3.5 mph - N/A   Clear
8:15 PM 35.1 °F - 28.4 °F 77% 30.39 in 10.0 mi Calm Calm - N/A   Clear
8:35 PM 35.1 °F 32.2 °F 28.4 °F 77% 30.39 in 10.0 mi SSE 3.5 mph - N/A   Clear
8:55 PM 33.8 °F 30.8 °F 28.2 °F 80% 30.39 in 10.0 mi SSE 3.5 mph - N/A   Clear
9:15 PM 33.3 °F 28.9 °F 28.2 °F 82% 30.38 in 10.0 mi SE 4.6 mph - N/A   Clear
9:35 PM 33.8 °F 30.8 °F 28.4 °F 81% 30.39 in 10.0 mi SE 3.5 mph - N/A   Clear
9:55 PM 33.8 °F 30.8 °F 28.4 °F 81% 30.38 in 10.0 mi SE 3.5 mph - N/A   Clear
10:15 PM 33.4 °F 29.1 °F 28.4 °F 82% 30.38 in 10.0 mi SE 4.6 mph - N/A   Clear
10:35 PM 32.0 °F 28.7 °F 27.9 °F 85% 30.38 in 10.0 mi SSE 3.5 mph - N/A   Clear
10:55 PM 31.8 °F 28.5 °F 28.0 °F 86% 30.38 in 10.0 mi South 3.5 mph - N/A   Clear
11:15 PM 31.1 °F 27.7 °F 27.5 °F 87% 30.38 in 10.0 mi South 3.5 mph - N/A   Clear
11:35 PM 31.1 °F 26.4 °F 27.5 °F 87% 30.38 in 10.0 mi South 4.6 mph - N/A   Clear
11:55 PM 30.0 °F 23.2 °F 26.4 °F 86% 30.38 in 10.0 mi SSE 6.9 mph - N/A   Clear